This is the latest recevied weather packets stored in our database for station/object KF4WSW-13. If no packets are shown the sender has not sent any weather packets the latest 10 day(s).
| Time | Temp. | Humidity | Pressure | Rain* | Wind** | Luminosity | Snow |
|---|---|---|---|---|---|---|---|
| 1777588216 | 26.67° C | 78% | 1009 hPa | 0 mm | - | 100 W/m² | - |
| 1777587912 | 26.67° C | 78% | 1009.1 hPa | 0 mm | - | 117 W/m² | - |
| 1777587608 | 26.67° C | 79% | 1009.1 hPa | 0 mm | - | 119 W/m² | - |
| 1777587303 | 26.67° C | 80% | 1009 hPa | 0 mm | - | 150 W/m² | - |
| 1777586998 | 26.67° C | 78% | 1009.1 hPa | 0 mm | - | 124 W/m² | - |
| 1777586694 | 27.22° C | 77% | 1009.2 hPa | 0 mm | - | 127 W/m² | - |
| 1777586390 | 26.67° C | 77% | 1009.1 hPa | 0 mm | - | 162 W/m² | - |
| 1777586089 | 26.67° C | 77% | 1009 hPa | 0 mm | - | 138 W/m² | - |
| 1777585788 | 26.67° C | 76% | 1009.1 hPa | 0 mm | - | 126 W/m² | - |
| 1777585482 | 26.67° C | 77% | 1009.2 hPa | 0 mm | - | 129 W/m² | - |
| 1777585179 | 27.22° C | 76% | 1009.3 hPa | 0 mm | - | 145 W/m² | - |
| 1777584874 | 27.22° C | 77% | 1009.3 hPa | 0 mm | - | 132 W/m² | - |
| 1777584572 | 27.22° C | 76% | 1009.1 hPa | 0 mm | - | 132 W/m² | - |
| 1777584269 | 27.22° C | 76% | 1009.4 hPa | 0 mm | - | 144 W/m² | - |
| 1777583969 | 27.22° C | 77% | 1009.5 hPa | 0 mm | - | 165 W/m² | - |
| 1777583664 | 27.22° C | 76% | 1009.4 hPa | 0 mm | - | 192 W/m² | - |
| 1777583364 | 27.22° C | 76% | 1009.5 hPa | 0 mm | - | 271 W/m² | - |
| 1777583058 | 27.78° C | 76% | 1009.6 hPa | 0 mm | - | 270 W/m² | - |
| 1777582755 | 27.22° C | 76% | 1009.6 hPa | 0 mm | - | 249 W/m² | - |
| 1777582450 | 26.67° C | 76% | 1009.4 hPa | 0 mm | - | 249 W/m² | - |
| 1777582151 | 27.22° C | 76% | 1009.4 hPa | 0 mm | - | 203 W/m² | - |
| 1777581850 | 27.22° C | 75% | 1009.5 hPa | 0 mm | - | 358 W/m² | - |
| 1777581549 | 27.22° C | 75% | 1009.4 hPa | 0 mm | - | 322 W/m² | - |
| 1777581245 | 27.22° C | 74% | 1009.6 hPa | 0 mm | - | 348 W/m² | - |
| 1777580945 | 27.22° C | 75% | 1009.8 hPa | 0 mm | - | 316 W/m² | - |
* Rain latest hour (hover to see other rain measurements)
** Current wind speed in m/s (hover to see current wind gust speed)